Powrót do katalogu

STARLINK-35632

AktywnyŁącznośćVLEO
NORAD 66129·PAYLOAD·🇺🇸 United States

Wystrzelony Oct 22, 2025 z Vandenberg Space Force Base

Loading…

Następne Przeloty (najbliższe 24 godziny)

TLE

ŚwieżeSource: CelesTrak SupGP

Epoka: Sep 15, 2026, 02:47 UTC

1 66129C 25237R   26258.11645833 -.00038002  00000+0 -11227-2 0  2584
2 66129  53.1583 238.7203 0001353  86.4881  43.2338 15.34413004    12

Śledź STARLINK-35632 w czasie rzeczywistym z AllMySat

Download on the App Store